START_TIME,STEP,MOV.,EG07,t_acc.,EG08,t_acc.,EG09,t_acc.,EB05,t_acc.,EBP05,t_acc.
1979-03-10 06:00:20.350 ,3,0,0.,1.2,0.,1.2,0.,1.2,,0.0,,0.0
1979-03-10 06:00:21.550 ,3,0,0.,1.2,0.,1.2,0.,1.2,,0.0,,0.0
1979-03-10 06:00:22.750 ,3,0,0.,1.2,0.,1.2,0.,1.2,,0.0,,0.0
1979-03-10 06:00:23.950 ,3,0,0.,1.2,0.,1.2,0.,1.2,,0.0,,0.0
1979-03-10 06:00:25.150 ,3,0,0.,1.2,0.,1.2,0.,1.2,,0.0,,0.0
1979-03-10 06:00:26.350 ,3,0,0.,1.2,0.,1.2,0.,1.2,,0.0,,0.0
1979-03-10 06:00:27.550 ,3,0,0.,1.2,0.,1.2,0.,1.2,,0.0,,0.0
1979-03-10 06:00:28.750 ,3,0,0.,1.2,0.,1.2,0.,1.2,,0.0,,0.0
1979-03-10 06:00:29.950 ,3,0,0.,1.2,0.,1.2,0.,1.2,,0.0,,0.0
1979-03-10 06:00:31.150 ,3,0,0.,1.2,0.,1.2,0.,1.2,,0.0,,0.0
1979-03-10 06:00:32.350 ,3,0,0.,1.2,0.,1.2,0.,1.2,,0.0,,0.0
1979-03-10 06:00:33.550 ,3,0,0.,1.2,0.,1.2,0.,1.2,,0.0,,0.0
1979-03-10 06:00:34.750 ,3,0,0.,1.2,0.,1.2,0.,1.2,,0.0,,0.0
1979-03-10 06:00:35.950 ,3,0,0.,1.2,0.,1.2,0.,1.2,,0.0,,0.0
1979-03-10 06:00:37.150 ,3,0,0.,1.2,0.,1.2,0.,1.2,,0.0,,0.0
1979-03-10 06:00:38.350 ,3,0,0.,1.2,0.,1.2,0.,1.2,,0.0,,0.0
1979-03-10 06:00:39.550 ,3,0,0.,1.2,0.,1.2,0.,1.2,,0.0,,0.0
1979-03-10 06:00:40.750 ,3,0,0.,1.2,0.,1.2,0.,1.2,,0.0,,0.0
1979-03-10 06:00:41.950 ,3,0,0.,1.2,0.,1.2,0.,1.2,,0.0,,0.0
1979-03-10 06:00:43.150 ,3,0,0.,1.2,0.,1.2,0.,1.2,,0.0,,0.0
1979-03-10 06:00:44.350 ,2,0,0.,1.2,0.,1.2,0.,1.2,,0.0,,0.0
1979-03-10 06:00:45.550 ,2,0,0.,1.2,0.,1.2,0.,1.2,,0.0,,0.0
1979-03-10 06:00:46.750 ,2,0,0.,1.2,0.,1.2,0.,1.2,,0.0,,0.0
1979-03-10 06:00:47.950 ,2,0,0.,1.2,0.,1.2,0.,1.2,,0.0,,0.0
1979-03-10 06:00:49.150 ,2,0,0.,1.2,0.,1.2,0.,1.2,,0.0,,0.0
1979-03-10 06:00:50.350 ,2,0,0.,1.2,0.,1.2,0.,1.2,,0.0,,0.0
1979-03-10 06:00:51.550 ,2,0,0.,1.2,0.,1.2,0.,1.2,,0.0,,0.0
1979-03-10 06:00:52.750 ,2,0,0.,1.2,0.,1.2,0.,1.2,,0.0,,0.0
1979-03-10 06:00:53.950 ,2,0,0.,1.2,0.,1.2,0.,1.2,,0.0,,0.0
1979-03-10 06:00:55.150 ,2,0,0.,1.2,0.,1.2,0.,1.2,,0.0,,0.0
1979-03-10 06:00:56.350 ,2,0,0.,1.2,0.,1.2,0.,1.2,,0.0,,0.0
1979-03-10 06:00:57.550 ,2,0,0.,1.2,0.,1.2,0.,1.2,,0.0,,0.0
1979-03-10 06:00:58.750 ,2,0,0.,1.2,0.,1.2,0.,1.2,,0.0,,0.0
1979-03-10 06:00:59.950 ,2,0,0.,1.2,0.,1.2,0.,1.2,,0.0,,0.0
1979-03-10 06:01:01.150 ,2,0,0.,1.2,0.,1.2,0.,1.2,,0.0,,0.0
1979-03-10 06:01:02.350 ,2,0,0.,1.2,0.,1.2,0.,1.2,,0.0,,0.0
1979-03-10 06:01:03.550 ,2,0,0.,1.2,0.,1.2,0.,1.2,,0.0,,0.0
1979-03-10 06:01:04.750 ,2,0,0.,1.2,0.,1.2,0.,1.2,,0.0,,0.0
1979-03-10 06:01:05.950 ,2,0,0.,1.2,0.,1.2,0.,1.2,,0.0,,0.0
1979-03-10 06:01:07.150 ,2,0,0.,1.2,0.,1.2,0.,1.2,,0.0,,0.0
1979-03-10 06:01:08.350 ,1,0,0.,1.2,0.,1.2,0.,1.2,,0.0,,0.0
1979-03-10 06:01:09.550 ,1,0,0.,1.2,0.,1.2,0.,1.2,,0.0,,0.0
1979-03-10 06:01:10.750 ,1,0,0.,1.2,0.,1.2,0.,1.2,,0.0,,0.0
1979-03-10 06:01:11.950 ,1,0,0.,1.2,0.,1.2,0.,1.2,,0.0,,0.0
1979-03-10 06:01:13.150 ,1,0,0.,1.2,0.,1.2,0.,1.2,,0.0,,0.0
1979-03-10 06:01:14.350 ,1,0,0.,1.2,0.,1.2,0.,1.2,,0.0,,0.0
1979-03-10 06:01:15.550 ,1,0,0.,1.2,0.,1.2,0.,1.2,,0.0,,0.0
1979-03-10 06:01:16.750 ,1,0,0.,1.2,0.,1.2,0.,1.2,,0.0,,0.0
1979-03-10 06:01:17.950 ,1,0,0.,1.2,0.,1.2,0.,1.2,,0.0,,0.0
1979-03-10 06:01:19.150 ,1,0,0.,1.2,0.,1.2,0.,1.2,,0.0,,0.0
1979-03-10 06:01:20.350 ,1,0,0.,1.2,0.,1.2,0.,1.2,,0.0,,0.0
1979-03-10 06:01:21.550 ,1,0,0.,1.2,0.,1.2,0.,1.2,,0.0,,0.0
1979-03-10 06:01:22.750 ,1,0,0.,1.2,0.,1.2,0.,1.2,,0.0,,0.0
1979-03-10 06:01:23.950 ,1,0,0.,1.2,0.,1.2,0.,1.2,,0.0,,0.0
1979-03-10 06:01:25.150 ,1,0,0.,1.2,0.,1.2,0.,1.2,,0.0,,0.0
1979-03-10 06:01:26.350 ,1,0,0.,1.2,0.,1.2,0.,1.2,,0.0,,0.0
1979-03-10 06:01:27.550 ,1,0,0.,1.2,0.,1.2,0.,1.2,,0.0,,0.0
1979-03-10 06:01:28.750 ,1,0,0.,1.2,0.,1.2,0.,1.2,,0.0,,0.0
1979-03-10 06:01:29.950 ,1,0,0.,1.2,0.,1.2,0.,1.2,,0.0,,0.0
1979-03-10 06:01:31.150 ,1,0,0.,1.2,0.,1.2,0.,1.2,,0.0,,0.0
1979-03-10 06:01:32.350 ,0,0,0.,1.2,0.,1.2,0.,1.2,,0.0,,0.0
1979-03-10 06:01:33.550 ,0,0,0.,1.2,0.,1.2,0.,1.2,,0.0,,0.0
1979-03-10 06:01:34.750 ,0,0,0.,1.2,0.,1.2,0.,1.2,,0.0,,0.0
1979-03-10 06:01:35.950 ,0,0,0.,1.2,0.,1.2,0.,1.2,,0.0,,0.0
1979-03-10 06:01:37.150 ,0,0,0.,1.2,0.,1.2,0.,1.2,,0.0,,0.0
1979-03-10 06:01:38.350 ,0,0,0.,1.2,0.,1.2,0.,1.2,,0.0,,0.0
1979-03-10 06:01:39.550 ,0,0,0.,1.2,0.,1.2,0.,1.2,,0.0,,0.0
1979-03-10 06:01:40.750 ,0,0,0.,1.2,0.,1.2,0.,1.2,,0.0,,0.0
1979-03-10 06:01:41.950 ,0,0,0.,1.2,0.,1.2,0.,1.2,,0.0,,0.0
1979-03-10 06:01:43.150 ,0,0,0.,1.2,0.,1.2,0.,1.2,,0.0,,0.0
1979-03-10 06:01:44.350 ,0,0,0.,1.2,0.,1.2,0.,1.2,,0.0,,0.0
1979-03-10 06:01:45.550 ,0,0,0.,1.2,0.,1.2,0.,1.2,,0.0,,0.0
1979-03-10 06:01:46.750 ,0,0,0.,1.2,0.,1.2,0.,1.2,,0.0,,0.0
1979-03-10 06:01:47.950 ,0,0,0.,1.2,0.,1.2,0.,1.2,,0.0,,0.0
1979-03-10 06:01:49.150 ,0,0,0.,1.2,0.,1.2,0.,1.2,,0.0,,0.0
1979-03-10 06:01:50.350 ,0,0,0.,1.2,0.,1.2,0.,1.2,,0.0,,0.0
1979-03-10 06:01:51.550 ,0,0,0.,1.2,0.,1.2,0.,1.2,,0.0,,0.0
1979-03-10 06:01:52.750 ,0,0,0.,1.2,0.,1.2,0.,1.2,,0.0,,0.0
1979-03-10 06:01:53.950 ,0,0,0.,1.2,0.,1.2,0.,1.2,,0.0,,0.0
1979-03-10 06:01:55.150 ,0,0,0.,1.2,0.,1.2,0.,1.2,,0.0,,0.0
1979-03-10 06:01:56.350 ,0,0,0.,1.2,0.,1.2,0.,1.2,,0.0,,0.0
1979-03-10 06:01:57.550 ,0,0,0.,1.2,0.,1.2,0.,1.2,,0.0,,0.0
1979-03-10 06:01:58.750 ,0,0,0.,1.2,0.,1.2,0.,1.2,,0.0,,0.0
1979-03-10 06:01:59.950 ,0,0,0.,1.2,0.,1.2,0.,1.2,,0.0,,0.0
1979-03-10 06:02:01.150 ,0,0,0.,1.2,0.,1.2,0.,1.2,,0.0,,0.0
1979-03-10 06:02:02.350 ,0,0,0.,1.2,0.,1.2,0.,1.2,,0.0,,0.0
1979-03-10 06:02:03.550 ,0,0,0.,1.2,0.,1.2,0.,1.2,,0.0,,0.0
1979-03-10 06:02:04.750 ,0,0,0.,1.2,0.,1.2,0.,1.2,,0.0,,0.0
1979-03-10 06:02:05.950 ,0,0,0.,1.2,0.,1.2,0.,1.2,,0.0,,0.0
1979-03-10 06:02:07.150 ,0,0,0.,1.2,0.,1.2,0.,1.2,,0.0,,0.0
1979-03-10 06:02:08.350 ,0,0,0.,1.2,0.,1.2,0.,1.2,,0.0,,0.0
1979-03-10 06:02:09.550 ,0,0,0.,1.2,0.,1.2,0.,1.2,,0.0,,0.0
1979-03-10 06:02:10.750 ,0,0,0.,1.2,0.,1.2,0.,1.2,,0.0,,0.0
1979-03-10 06:02:11.950 ,0,0,0.,1.2,0.,1.2,0.,1.2,,0.0,,0.0
1979-03-10 06:02:13.150 ,0,0,0.,1.2,0.,1.2,0.,1.2,,0.0,,0.0
1979-03-10 06:02:14.350 ,0,0,0.,1.2,0.,1.2,0.,1.2,,0.0,,0.0
1979-03-10 06:02:15.550 ,0,0,0.,1.2,0.,1.2,0.,1.2,,0.0,,0.0
1979-03-10 06:02:16.750 ,0,0,0.,1.2,0.,1.2,0.,1.2,,0.0,,0.0
1979-03-10 06:02:17.950 ,0,0,0.,1.2,0.,1.2,0.,1.2,,0.0,,0.0
1979-03-10 06:02:19.150 ,0,0,0.,1.2,0.,1.2,0.,1.2,,0.0,,0.0
1979-03-10 06:02:20.350 ,1,0,0.,1.2,0.,1.2,0.,1.2,,0.0,,0.0
1979-03-10 06:02:21.550 ,1,0,0.,1.2,0.,1.2,0.,1.2,,0.0,,0.0
1979-03-10 06:02:22.750 ,1,0,0.,1.2,0.,1.2,0.,1.2,,0.0,,0.0
1979-03-10 06:02:23.950 ,1,0,0.,1.2,0.,1.2,0.,1.2,,0.0,,0.0
1979-03-10 06:02:25.150 ,1,0,0.,1.2,0.,1.2,0.,1.2,,0.0,,0.0
1979-03-10 06:02:26.350 ,1,0,0.,1.2,0.,1.2,0.,1.2,,0.0,,0.0
1979-03-10 06:02:27.550 ,1,0,0.,1.2,0.,1.2,0.,1.2,,0.0,,0.0
1979-03-10 06:02:28.750 ,1,0,0.,1.2,0.,1.2,0.,1.2,,0.0,,0.0
1979-03-10 06:02:29.950 ,1,0,0.,1.2,0.,1.2,0.,1.2,,0.0,,0.0
1979-03-10 06:02:31.150 ,1,0,0.,1.2,0.,1.2,0.,1.2,,0.0,,0.0
1979-03-10 06:02:32.350 ,1,0,0.,1.2,0.,1.2,0.,1.2,,0.0,,0.0
1979-03-10 06:02:33.550 ,1,0,0.,1.2,0.,1.2,0.,1.2,,0.0,,0.0
1979-03-10 06:02:34.750 ,1,0,0.,1.2,0.,1.2,0.,1.2,,0.0,,0.0
1979-03-10 06:02:35.950 ,1,0,0.,1.2,0.,1.2,0.,1.2,,0.0,,0.0
1979-03-10 06:02:37.150 ,1,0,0.,1.2,0.,1.2,0.,1.2,,0.0,,0.0
1979-03-10 06:02:38.350 ,1,0,0.,1.2,0.,1.2,0.,1.2,,0.0,,0.0
1979-03-10 06:02:39.550 ,1,0,0.,1.2,0.,1.2,0.,1.2,,0.0,,0.0
1979-03-10 06:02:40.750 ,1,0,0.,1.2,0.,1.2,0.,1.2,,0.0,,0.0
1979-03-10 06:02:41.950 ,1,0,0.,1.2,0.,1.2,0.,1.2,,0.0,,0.0
1979-03-10 06:02:43.150 ,1,0,0.,1.2,0.,1.2,0.,1.2,,0.0,,0.0
1979-03-10 06:02:44.350 ,2,0,0.,1.2,0.,1.2,0.,1.2,,0.0,,0.0
1979-03-10 06:02:45.550 ,2,0,0.,1.2,0.,1.2,0.,1.2,,0.0,,0.0
1979-03-10 06:02:46.750 ,2,0,0.,1.2,0.,1.2,0.,1.2,,0.0,,0.0
1979-03-10 06:02:47.950 ,2,0,0.,1.2,0.,1.2,0.,1.2,,0.0,,0.0
1979-03-10 06:02:49.150 ,2,0,0.,1.2,0.,1.2,0.,1.2,,0.0,,0.0
1979-03-10 06:02:50.350 ,2,0,0.,1.2,0.,1.2,0.,1.2,,0.0,,0.0
1979-03-10 06:02:51.550 ,2,0,0.,1.2,0.,1.2,0.,1.2,,0.0,,0.0
1979-03-10 06:02:52.750 ,2,0,0.,1.2,0.,1.2,0.,1.2,,0.0,,0.0
1979-03-10 06:02:53.950 ,2,0,0.,1.2,0.,1.2,0.,1.2,,0.0,,0.0
1979-03-10 06:02:55.150 ,2,0,0.,1.2,0.,1.2,0.,1.2,,0.0,,0.0
1979-03-10 06:02:56.350 ,2,0,0.,1.2,0.,1.2,0.,1.2,,0.0,,0.0
1979-03-10 06:02:57.550 ,2,0,0.,1.2,0.,1.2,0.,1.2,,0.0,,0.0
1979-03-10 06:02:58.750 ,2,0,0.,1.2,0.,1.2,0.,1.2,,0.0,,0.0
1979-03-10 06:02:59.950 ,2,0,0.,1.2,0.,1.2,0.,1.2,,0.0,,0.0
1979-03-10 06:03:01.150 ,2,0,0.,1.2,0.,1.2,0.,1.2,,0.0,,0.0
1979-03-10 06:03:02.350 ,2,0,0.,1.2,0.,1.2,0.,1.2,,0.0,,0.0
1979-03-10 06:03:03.550 ,2,0,0.,1.2,0.,1.2,0.,1.2,,0.0,,0.0
1979-03-10 06:03:04.750 ,2,0,0.,1.2,0.,1.2,0.,1.2,,0.0,,0.0
1979-03-10 06:03:05.950 ,2,0,0.,1.2,0.,1.2,0.,1.2,,0.0,,0.0
1979-03-10 06:03:07.150 ,2,0,0.,1.2,0.,1.2,0.,1.2,,0.0,,0.0
1979-03-10 06:03:08.350 ,3,0,0.,1.2,0.,1.2,0.,1.2,,0.0,,0.0
1979-03-10 06:03:09.550 ,3,0,0.,1.2,0.,1.2,0.,1.2,,0.0,,0.0
1979-03-10 06:03:10.750 ,3,0,0.,1.2,0.,1.2,0.,1.2,,0.0,,0.0
1979-03-10 06:03:11.950 ,3,0,0.,1.2,0.,1.2,0.,1.2,,0.0,,0.0
1979-03-10 06:03:13.150 ,3,0,0.,1.2,0.,1.2,0.,1.2,,0.0,,0.0
1979-03-10 06:03:14.350 ,3,0,0.,1.2,0.,1.2,0.,1.2,,0.0,,0.0
1979-03-10 06:03:15.550 ,3,0,0.,1.2,0.,1.2,0.,1.2,,0.0,,0.0
1979-03-10 06:03:16.750 ,3,0,0.,1.2,0.,1.2,0.,1.2,,0.0,,0.0
1979-03-10 06:03:17.950 ,3,0,0.,1.2,0.,1.2,0.,1.2,,0.0,,0.0
1979-03-10 06:03:19.150 ,3,0,0.,1.2,0.,1.2,0.,1.2,,0.0,,0.0
1979-03-10 06:03:20.350 ,3,0,0.,1.2,0.,1.2,0.,1.2,,0.0,,0.0
1979-03-10 06:03:21.550 ,3,0,0.,1.2,0.,1.2,0.,1.2,,0.0,,0.0
1979-03-10 06:03:22.750 ,3,0,0.,1.2,0.,1.2,0.,1.2,,0.0,,0.0
1979-03-10 06:03:23.950 ,3,0,0.,1.2,0.,1.2,0.,1.2,,0.0,,0.0
1979-03-10 06:03:25.150 ,3,0,0.,1.2,0.,1.2,0.,1.2,,0.0,,0.0
1979-03-10 06:03:26.350 ,3,0,0.,1.2,0.,1.2,0.,1.2,,0.0,,0.0
1979-03-10 06:03:27.550 ,3,0,0.,1.2,0.,1.2,0.,1.2,,0.0,,0.0
1979-03-10 06:03:28.750 ,3,0,0.,1.2,0.,1.2,0.,1.2,,0.0,,0.0
1979-03-10 06:03:29.950 ,3,0,0.,1.2,0.,1.2,0.,1.2,,0.0,,0.0
1979-03-10 06:03:31.150 ,3,0,0.,1.2,0.,1.2,0.,1.2,,0.0,,0.0
1979-03-10 06:03:32.350 ,4,0,0.,1.2,0.,1.2,0.,1.2,,0.0,,0.0
1979-03-10 06:03:33.550 ,4,0,0.,1.2,0.,1.2,0.,1.2,,0.0,,0.0
1979-03-10 06:03:34.750 ,4,0,0.,1.2,0.,1.2,0.,1.2,,0.0,,0.0
1979-03-10 06:03:35.950 ,4,0,0.,1.2,0.,1.2,0.,1.2,,0.0,,0.0
1979-03-10 06:03:37.150 ,4,0,0.,1.2,0.,1.2,0.,1.2,,0.0,,0.0
1979-03-10 06:03:38.350 ,4,0,0.,1.2,0.,1.2,0.,1.2,,0.0,,0.0
1979-03-10 06:03:39.550 ,4,0,0.,1.2,0.,1.2,0.,1.2,,0.0,,0.0
1979-03-10 06:03:40.750 ,4,0,0.,1.2,0.,1.2,0.,1.2,,0.0,,0.0
1979-03-10 06:03:41.950 ,4,0,0.,1.2,0.,1.2,0.,1.2,,0.0,,0.0
1979-03-10 06:03:43.150 ,4,0,0.,1.2,0.,1.2,0.,1.2,,0.0,,0.0
1979-03-10 06:03:44.350 ,4,0,0.,1.2,0.,1.2,0.,1.2,,0.0,,0.0
1979-03-10 06:03:45.550 ,4,0,0.,1.2,0.,1.2,0.,1.2,,0.0,,0.0
1979-03-10 06:03:46.750 ,4,0,0.,1.2,0.,1.2,0.,1.2,,0.0,,0.0
1979-03-10 06:03:47.950 ,4,0,0.,1.2,0.,1.2,0.,1.2,,0.0,,0.0
1979-03-10 06:03:49.150 ,4,0,0.,1.2,0.,1.2,0.,1.2,,0.0,,0.0
1979-03-10 06:03:50.350 ,4,0,0.,1.2,0.,1.2,0.,1.2,,0.0,,0.0
1979-03-10 06:03:51.550 ,4,0,0.,1.2,0.,1.2,0.,1.2,,0.0,,0.0
1979-03-10 06:03:52.750 ,4,0,0.,1.2,0.,1.2,0.,1.2,,0.0,,0.0
1979-03-10 06:03:53.950 ,4,0,0.,1.2,0.,1.2,0.,1.2,,0.0,,0.0
1979-03-10 06:03:55.150 ,4,0,0.,1.2,0.,1.2,0.,1.2,,0.0,,0.0
1979-03-10 06:03:56.350 ,5,0,0.,1.2,0.,1.2,0.,1.2,,0.0,,0.0
1979-03-10 06:03:57.550 ,5,0,0.,1.2,0.,1.2,0.,1.2,,0.0,,0.0
1979-03-10 06:03:58.750 ,5,0,0.,1.2,0.,1.2,0.,1.2,,0.0,,0.0
1979-03-10 06:03:59.950 ,5,0,0.,1.2,0.,1.2,0.,1.2,,0.0,,0.0
1979-03-10 06:04:01.150 ,5,0,0.,1.2,0.,1.2,0.,1.2,,0.0,,0.0
1979-03-10 06:04:02.350 ,5,0,0.,1.2,0.,1.2,0.,1.2,,0.0,,0.0
1979-03-10 06:04:03.550 ,5,0,0.,1.2,0.,1.2,0.,1.2,,0.0,,0.0
1979-03-10 06:04:04.750 ,5,0,0.,1.2,0.,1.2,0.,1.2,,0.0,,0.0
1979-03-10 06:04:05.950 ,5,0,0.,1.2,0.,1.2,0.,1.2,,0.0,,0.0
1979-03-10 06:04:07.150 ,5,0,0.,1.2,0.,1.2,0.,1.2,,0.0,,0.0
1979-03-10 06:04:08.350 ,5,0,0.,1.2,0.,1.2,0.,1.2,,0.0,,0.0
1979-03-10 06:04:09.550 ,5,0,0.,1.2,0.,1.2,0.,1.2,,0.0,,0.0
1979-03-10 06:04:10.750 ,5,0,0.,1.2,0.,1.2,0.,1.2,,0.0,,0.0
1979-03-10 06:04:11.950 ,5,0,0.,1.2,0.,1.2,0.,1.2,,0.0,,0.0
1979-03-10 06:04:13.150 ,5,0,0.,1.2,0.,1.2,0.,1.2,,0.0,,0.0
1979-03-10 06:04:14.350 ,5,0,0.,1.2,0.,1.2,0.,1.2,,0.0,,0.0
1979-03-10 06:04:15.550 ,5,0,0.,1.2,0.,1.2,0.,1.2,,0.0,,0.0
1979-03-10 06:04:16.750 ,5,0,0.,1.2,0.,1.2,0.,1.2,,0.0,,0.0
1979-03-10 06:04:17.950 ,5,0,0.,1.2,0.,1.2,0.,1.2,,0.0,,0.0
1979-03-10 06:04:19.150 ,5,0,0.,1.2,0.,1.2,0.,1.2,,0.0,,0.0
1979-03-10 06:04:20.350 ,6,0,0.,1.2,0.,1.2,0.,1.2,,0.0,,0.0
1979-03-10 06:04:21.550 ,6,0,0.,1.2,0.,1.2,0.,1.2,,0.0,,0.0
1979-03-10 06:04:22.750 ,6,0,0.,1.2,0.,1.2,0.,1.2,,0.0,,0.0
1979-03-10 06:04:23.950 ,6,0,0.,1.2,0.,1.2,0.,1.2,,0.0,,0.0
1979-03-10 06:04:25.150 ,6,0,0.,1.2,0.,1.2,0.,1.2,,0.0,,0.0
1979-03-10 06:04:26.350 ,6,0,0.,1.2,0.,1.2,0.,1.2,,0.0,,0.0
1979-03-10 06:04:27.550 ,6,0,0.,1.2,0.,1.2,0.,1.2,,0.0,,0.0
1979-03-10 06:04:28.750 ,6,0,0.,1.2,0.,1.2,0.,1.2,,0.0,,0.0
1979-03-10 06:04:29.950 ,6,0,0.,1.2,0.,1.2,0.,1.2,,0.0,,0.0
1979-03-10 06:04:31.150 ,6,0,0.,1.2,0.,1.2,0.,1.2,,0.0,,0.0
1979-03-10 06:04:32.350 ,6,0,0.,1.2,0.,1.2,0.,1.2,,0.0,,0.0
1979-03-10 06:04:33.550 ,6,0,0.,1.2,0.,1.2,0.,1.2,,0.0,,0.0
1979-03-10 06:04:34.750 ,6,0,0.,1.2,0.,1.2,0.,1.2,,0.0,,0.0
1979-03-10 06:04:35.950 ,6,0,0.,1.2,0.,1.2,0.,1.2,,0.0,,0.0
1979-03-10 06:04:37.150 ,6,0,0.,1.2,0.,1.2,0.,1.2,,0.0,,0.0
1979-03-10 06:04:38.350 ,6,0,0.,1.2,0.,1.2,0.,1.2,,0.0,,0.0
1979-03-10 06:04:39.550 ,6,0,0.,1.2,0.,1.2,0.,1.2,,0.0,,0.0
1979-03-10 06:04:40.750 ,6,0,0.,1.2,0.,1.2,0.,1.2,,0.0,,0.0
1979-03-10 06:04:41.950 ,6,0,0.,1.2,0.,1.2,0.,1.2,,0.0,,0.0
1979-03-10 06:04:43.150 ,6,0,0.,1.2,0.,1.2,0.,1.2,,0.0,,0.0
1979-03-10 06:04:44.350 ,7,0,0.,1.2,0.,1.2,0.,1.2,,0.0,,0.0
1979-03-10 06:04:45.550 ,7,0,0.,1.2,0.,1.2,0.,1.2,,0.0,,0.0
1979-03-10 06:04:46.750 ,7,0,0.,1.2,0.,1.2,0.,1.2,,0.0,,0.0
1979-03-10 06:04:47.950 ,7,0,0.,1.2,0.,1.2,0.,1.2,,0.0,,0.0
1979-03-10 06:04:49.150 ,7,0,0.,1.2,0.,1.2,0.,1.2,,0.0,,0.0
1979-03-10 06:04:50.350 ,7,0,0.,1.2,0.,1.2,0.,1.2,,0.0,,0.0
1979-03-10 06:04:51.550 ,7,0,0.,1.2,0.,1.2,0.,1.2,,0.0,,0.0
1979-03-10 06:04:52.750 ,7,0,0.,1.2,0.,1.2,0.,1.2,,0.0,,0.0
1979-03-10 06:04:53.950 ,7,0,0.,1.2,0.,1.2,0.,1.2,,0.0,,0.0
1979-03-10 06:04:55.150 ,7,0,0.,1.2,0.,1.2,0.,1.2,,0.0,,0.0
1979-03-10 06:04:56.350 ,7,0,0.,1.2,0.,1.2,0.,1.2,,0.0,,0.0
1979-03-10 06:04:57.550 ,7,0,0.,1.2,0.,1.2,0.,1.2,,0.0,,0.0
1979-03-10 06:04:58.750 ,7,0,0.,1.2,0.,1.2,0.,1.2,,0.0,,0.0
1979-03-10 06:04:59.950 ,7,0,0.,1.2,0.,1.2,0.,1.2,,0.0,,0.0
1979-03-10 06:05:01.150 ,7,0,0.,1.2,0.,1.2,0.,1.2,,0.0,,0.0
1979-03-10 06:05:02.350 ,7,0,0.,1.2,0.,1.2,0.,1.2,,0.0,,0.0
1979-03-10 06:05:03.550 ,7,0,0.,1.2,0.,1.2,0.,1.2,,0.0,,0.0
1979-03-10 06:05:04.750 ,7,0,0.,1.2,0.,1.2,0.,1.2,,0.0,,0.0
1979-03-10 06:05:05.950 ,7,0,0.,1.2,0.,1.2,0.,1.2,,0.0,,0.0
1979-03-10 06:05:07.150 ,7,0,0.,1.2,0.,1.2,0.,1.2,,0.0,,0.0
1979-03-10 06:05:08.350 ,7,0,0.,1.2,0.,1.2,0.,1.2,,0.0,,0.0
1979-03-10 06:05:09.550 ,7,0,0.,1.2,0.,1.2,0.,1.2,,0.0,,0.0
1979-03-10 06:05:10.750 ,7,0,0.,1.2,0.,1.2,0.,1.2,,0.0,,0.0
1979-03-10 06:05:11.950 ,7,0,0.,1.2,0.,1.2,0.,1.2,,0.0,,0.0
1979-03-10 06:05:13.150 ,7,0,0.,1.2,0.,1.2,0.,1.2,,0.0,,0.0
1979-03-10 06:05:14.350 ,7,0,0.,1.2,0.,1.2,0.,1.2,,0.0,,0.0
1979-03-10 06:05:15.550 ,7,0,0.,1.2,0.,1.2,0.,1.2,,0.0,,0.0
1979-03-10 06:05:16.750 ,7,0,0.,1.2,0.,1.2,0.,1.2,,0.0,,0.0
1979-03-10 06:05:17.950 ,7,0,0.,1.2,0.,1.2,0.,1.2,,0.0,,0.0
1979-03-10 06:05:19.150 ,7,0,0.,1.2,0.,1.2,0.,1.2,,0.0,,0.0
1979-03-10 06:05:20.350 ,7,0,0.,1.2,0.,1.2,0.,1.2,,0.0,,0.0
1979-03-10 06:05:21.550 ,7,0,0.,1.2,0.,1.2,0.,1.2,,0.0,,0.0
1979-03-10 06:05:22.750 ,7,0,0.,1.2,0.,1.2,0.,1.2,,0.0,,0.0
1979-03-10 06:05:23.950 ,7,0,0.,1.2,0.,1.2,0.,1.2,,0.0,,0.0
1979-03-10 06:05:25.150 ,7,0,0.,1.2,0.,1.2,0.,1.2,,0.0,,0.0
1979-03-10 06:05:26.350 ,7,0,0.,1.2,0.,1.2,0.,1.2,,0.0,,0.0
1979-03-10 06:05:27.550 ,7,0,0.,1.2,0.,1.2,0.,1.2,,0.0,,0.0
1979-03-10 06:05:28.750 ,7,0,0.,1.2,0.,1.2,0.,1.2,,0.0,,0.0
1979-03-10 06:05:29.950 ,7,0,0.,1.2,0.,1.2,0.,1.2,,0.0,,0.0
1979-03-10 06:05:31.150 ,7,0,0.,1.2,0.,1.2,0.,1.2,,0.0,,0.0
1979-03-10 06:05:32.350 ,6,0,0.,1.2,0.,1.2,0.,1.2,,0.0,,0.0
1979-03-10 06:05:33.550 ,6,0,0.,1.2,0.,1.2,0.,1.2,,0.0,,0.0
1979-03-10 06:05:34.750 ,6,0,0.,1.2,0.,1.2,0.,1.2,,0.0,,0.0
1979-03-10 06:05:35.950 ,6,0,0.,1.2,0.,1.2,0.,1.2,,0.0,,0.0
1979-03-10 06:05:37.150 ,6,0,0.,1.2,0.,1.2,0.,1.2,,0.0,,0.0
1979-03-10 06:05:38.350 ,6,0,0.,1.2,0.,1.2,0.,1.2,,0.0,,0.0
1979-03-10 06:05:39.550 ,6,0,0.,1.2,0.,1.2,0.,1.2,,0.0,,0.0
1979-03-10 06:05:40.750 ,6,0,0.,1.2,0.,1.2,0.,1.2,,0.0,,0.0
1979-03-10 06:05:41.950 ,6,0,0.,1.2,0.,1.2,0.,1.2,,0.0,,0.0
1979-03-10 06:05:43.150 ,6,0,0.,1.2,0.,1.2,0.,1.2,,0.0,,0.0
1979-03-10 06:05:44.350 ,6,0,0.,1.2,0.,1.2,0.,1.2,,0.0,,0.0
1979-03-10 06:05:45.550 ,6,0,0.,1.2,0.,1.2,0.,1.2,,0.0,,0.0
1979-03-10 06:05:46.750 ,6,0,0.,1.2,0.,1.2,0.,1.2,,0.0,,0.0
1979-03-10 06:05:47.950 ,6,0,0.,1.2,0.,1.2,0.,1.2,,0.0,,0.0
1979-03-10 06:05:49.150 ,6,0,0.,1.2,0.,1.2,0.,1.2,,0.0,,0.0
1979-03-10 06:05:50.350 ,6,0,0.,1.2,0.,1.2,0.,1.2,,0.0,,0.0
1979-03-10 06:05:51.550 ,6,0,0.,1.2,0.,1.2,0.,1.2,,0.0,,0.0
1979-03-10 06:05:52.750 ,6,0,0.,1.2,0.,1.2,0.,1.2,,0.0,,0.0
1979-03-10 06:05:53.950 ,6,0,0.,1.2,0.,1.2,0.,1.2,,0.0,,0.0
1979-03-10 06:05:55.150 ,6,0,0.,1.2,0.,1.2,0.,1.2,,0.0,,0.0
1979-03-10 06:05:56.350 ,5,0,0.,1.2,0.,1.2,0.,1.2,,0.0,,0.0
1979-03-10 06:05:57.550 ,5,0,0.,1.2,0.,1.2,0.,1.2,,0.0,,0.0
1979-03-10 06:05:58.750 ,5,0,0.,1.2,0.,1.2,0.,1.2,,0.0,,0.0
1979-03-10 06:05:59.950 ,5,0,0.,1.2,0.,1.2,0.,1.2,,0.0,,0.0
1979-03-10 06:06:01.150 ,5,0,0.,1.2,0.,1.2,0.,1.2,,0.0,,0.0
1979-03-10 06:06:02.350 ,5,0,0.,1.2,0.,1.2,0.,1.2,,0.0,,0.0
1979-03-10 06:06:03.550 ,5,0,0.,1.2,0.,1.2,0.,1.2,,0.0,,0.0
1979-03-10 06:06:04.750 ,5,0,0.,1.2,0.,1.2,0.,1.2,,0.0,,0.0
1979-03-10 06:06:05.950 ,5,0,0.,1.2,0.,1.2,0.,1.2,,0.0,,0.0
1979-03-10 06:06:07.150 ,5,0,0.,1.2,0.,1.2,0.,1.2,,0.0,,0.0
1979-03-10 06:06:08.350 ,5,0,0.,1.2,0.,1.2,0.,1.2,,0.0,,0.0
1979-03-10 06:06:09.550 ,5,0,0.,1.2,0.,1.2,0.,1.2,,0.0,,0.0
1979-03-10 06:06:10.750 ,5,0,0.,1.2,0.,1.2,0.,1.2,,0.0,,0.0
1979-03-10 06:06:11.950 ,5,0,0.,1.2,0.,1.2,0.,1.2,,0.0,,0.0
1979-03-10 06:06:13.150 ,5,0,0.,1.2,0.,1.2,0.,1.2,,0.0,,0.0
1979-03-10 06:06:14.350 ,5,0,0.,1.2,0.,1.2,0.,1.2,,0.0,,0.0
1979-03-10 06:06:15.550 ,5,0,0.,1.2,0.,1.2,0.,1.2,,0.0,,0.0
1979-03-10 06:06:16.750 ,5,0,0.,1.2,0.,1.2,0.,1.2,,0.0,,0.0
1979-03-10 06:06:17.950 ,5,0,0.,1.2,0.,1.2,0.,1.2,,0.0,,0.0
1979-03-10 06:06:19.150 ,5,0,0.,1.2,0.,1.2,0.,1.2,,0.0,,0.0
1979-03-10 06:06:20.350 ,4,0,0.,1.2,0.,1.2,0.,1.2,,0.0,,0.0
1979-03-10 06:06:21.550 ,4,0,0.,1.2,0.,1.2,0.,1.2,,0.0,,0.0
1979-03-10 06:06:22.750 ,4,0,0.,1.2,0.,1.2,0.,1.2,,0.0,,0.0
1979-03-10 06:06:23.950 ,4,0,0.,1.2,0.,1.2,0.,1.2,,0.0,,0.0
1979-03-10 06:06:25.150 ,4,0,0.,1.2,0.,1.2,0.,1.2,,0.0,,0.0
1979-03-10 06:06:26.350 ,4,0,0.,1.2,0.,1.2,0.,1.2,,0.0,,0.0
1979-03-10 06:06:27.550 ,4,0,0.,1.2,0.,1.2,0.,1.2,,0.0,,0.0
1979-03-10 06:06:28.750 ,4,0,0.,1.2,0.,1.2,0.,1.2,,0.0,,0.0
1979-03-10 06:06:29.950 ,4,0,0.,1.2,0.,1.2,0.,1.2,,0.0,,0.0
1979-03-10 06:06:31.150 ,4,0,0.,1.2,0.,1.2,0.,1.2,,0.0,,0.0
1979-03-10 06:06:32.350 ,4,0,0.,1.2,0.,1.2,0.,1.2,,0.0,,0.0
1979-03-10 06:06:33.550 ,4,0,0.,1.2,0.,1.2,0.,1.2,,0.0,,0.0
1979-03-10 06:06:34.750 ,4,0,0.,1.2,0.,1.2,0.,1.2,,0.0,,0.0
1979-03-10 06:06:35.950 ,4,0,0.,1.2,0.,1.2,0.,1.2,,0.0,,0.0
1979-03-10 06:06:37.150 ,4,0,0.,1.2,0.,1.2,0.,1.2,,0.0,,0.0
1979-03-10 06:06:38.350 ,4,0,0.,1.2,0.,1.2,0.,1.2,,0.0,,0.0
1979-03-10 06:06:39.550 ,4,0,0.,1.2,0.,1.2,0.,1.2,,0.0,,0.0
1979-03-10 06:06:40.750 ,4,0,0.,1.2,0.,1.2,0.,1.2,,0.0,,0.0
1979-03-10 06:06:41.950 ,4,0,0.,1.2,0.,1.2,0.,1.2,,0.0,,0.0
1979-03-10 06:06:43.150 ,4,0,0.,1.2,0.,1.2,0.,1.2,,0.0,,0.0
1979-03-10 06:06:44.350 ,3,0,0.,1.2,0.,1.2,0.,1.2,,0.0,,0.0
1979-03-10 06:06:45.550 ,3,0,0.,1.2,0.,1.2,0.,1.2,,0.0,,0.0
1979-03-10 06:06:46.750 ,3,0,0.,1.2,0.,1.2,0.,1.2,,0.0,,0.0
1979-03-10 06:06:47.950 ,3,0,0.,1.2,0.,1.2,0.,1.2,,0.0,,0.0
1979-03-10 06:06:49.150 ,3,0,0.,1.2,0.,1.2,0.,1.2,,0.0,,0.0
1979-03-10 06:06:50.350 ,3,0,0.,1.2,0.,1.2,0.,1.2,,0.0,,0.0
1979-03-10 06:06:51.550 ,3,0,0.,1.2,0.,1.2,0.,1.2,,0.0,,0.0
1979-03-10 06:06:52.750 ,3,0,0.,1.2,0.,1.2,0.,1.2,,0.0,,0.0
1979-03-10 06:06:53.950 ,3,0,0.,1.2,0.,1.2,0.,1.2,,0.0,,0.0
1979-03-10 06:06:55.150 ,3,0,0.,1.2,0.,1.2,0.,1.2,,0.0,,0.0
1979-03-10 06:06:56.350 ,3,0,0.,1.2,0.,1.2,0.,1.2,,0.0,,0.0
1979-03-10 06:06:57.550 ,3,0,0.,1.2,0.,1.2,0.,1.2,,0.0,,0.0
1979-03-10 06:06:58.750 ,3,0,0.,1.2,0.,1.2,0.,1.2,,0.0,,0.0
1979-03-10 06:06:59.950 ,3,0,0.,1.2,0.,1.2,0.,1.2,,0.0,,0.0
1979-03-10 06:07:01.150 ,3,0,0.,1.2,0.,1.2,0.,1.2,,0.0,,0.0
1979-03-10 06:07:02.350 ,3,0,0.,1.2,0.,1.2,0.,1.2,,0.0,,0.0
1979-03-10 06:07:03.550 ,3,0,0.,1.2,0.,1.2,0.,1.2,,0.0,,0.0
1979-03-10 06:07:04.750 ,3,0,0.,1.2,0.,1.2,0.,1.2,,0.0,,0.0
1979-03-10 06:07:05.950 ,3,0,0.,1.2,0.,1.2,0.,1.2,,0.0,,0.0
1979-03-10 06:07:07.150 ,3,0,0.,1.2,0.,1.2,0.,1.2,,0.0,,0.0
1979-03-10 06:07:08.350 ,2,0,0.,1.2,0.,1.2,0.,1.2,,0.0,,0.0
1979-03-10 06:07:09.550 ,2,0,0.,1.2,0.,1.2,0.,1.2,,0.0,,0.0
1979-03-10 06:07:10.750 ,2,0,0.,1.2,0.,1.2,0.,1.2,,0.0,,0.0
1979-03-10 06:07:11.950 ,2,0,0.,1.2,0.,1.2,0.,1.2,,0.0,,0.0
1979-03-10 06:07:13.150 ,2,0,0.,1.2,0.,1.2,0.,1.2,,0.0,,0.0
1979-03-10 06:07:14.350 ,2,0,0.,1.2,0.,1.2,0.,1.2,,0.0,,0.0
1979-03-10 06:07:15.550 ,2,0,0.,1.2,0.,1.2,0.,1.2,,0.0,,0.0
1979-03-10 06:07:16.750 ,2,0,0.,1.2,0.,1.2,0.,1.2,,0.0,,0.0
1979-03-10 06:07:17.950 ,2,0,0.,1.2,0.,1.2,0.,1.2,,0.0,,0.0
1979-03-10 06:07:19.150 ,2,0,0.,1.2,0.,1.2,0.,1.2,,0.0,,0.0
1979-03-10 06:07:20.350 ,2,0,0.,1.2,0.,1.2,0.,1.2,,0.0,,0.0
1979-03-10 06:07:21.550 ,2,0,0.,1.2,0.,1.2,0.,1.2,,0.0,,0.0
1979-03-10 06:07:22.750 ,2,0,0.,1.2,0.,1.2,0.,1.2,,0.0,,0.0
1979-03-10 06:07:23.950 ,2,0,0.,1.2,0.,1.2,0.,1.2,,0.0,,0.0
1979-03-10 06:07:25.150 ,2,0,0.,1.2,0.,1.2,0.,1.2,,0.0,,0.0
1979-03-10 06:07:26.350 ,2,0,0.,1.2,0.,1.2,0.,1.2,,0.0,,0.0
1979-03-10 06:07:27.550 ,2,0,0.,1.2,0.,1.2,0.,1.2,,0.0,,0.0
1979-03-10 06:07:28.750 ,2,0,0.,1.2,0.,1.2,0.,1.2,,0.0,,0.0
1979-03-10 06:07:29.950 ,2,0,0.,1.2,0.,1.2,0.,1.2,,0.0,,0.0
1979-03-10 06:07:31.150 ,2,0,0.,1.2,0.,1.2,0.,1.2,,0.0,,0.0
1979-03-10 06:07:32.350 ,1,0,0.,1.2,0.,1.2,0.,1.2,,0.0,,0.0
1979-03-10 06:07:33.550 ,1,0,0.,1.2,0.,1.2,0.,1.2,,0.0,,0.0
1979-03-10 06:07:34.750 ,1,0,0.,1.2,0.,1.2,0.,1.2,,0.0,,0.0
1979-03-10 06:07:35.950 ,1,0,0.,1.2,0.,1.2,0.,1.2,,0.0,,0.0
1979-03-10 06:07:37.150 ,1,0,0.,1.2,0.,1.2,0.,1.2,,0.0,,0.0
1979-03-10 06:07:38.350 ,1,0,0.,1.2,0.,1.2,0.,1.2,,0.0,,0.0
1979-03-10 06:07:39.550 ,1,0,0.,1.2,0.,1.2,0.,1.2,,0.0,,0.0
1979-03-10 06:07:40.750 ,1,0,0.,1.2,0.,1.2,0.,1.2,,0.0,,0.0
1979-03-10 06:07:41.950 ,1,0,0.,1.2,0.,1.2,0.,1.2,,0.0,,0.0
1979-03-10 06:07:43.150 ,1,0,0.,1.2,0.,1.2,0.,1.2,,0.0,,0.0
1979-03-10 06:07:44.350 ,1,0,0.,1.2,0.,1.2,0.,1.2,,0.0,,0.0
1979-03-10 06:07:45.550 ,1,0,0.,1.2,0.,1.2,0.,1.2,,0.0,,0.0
1979-03-10 06:07:46.750 ,1,0,0.,1.2,0.,1.2,0.,1.2,,0.0,,0.0
1979-03-10 06:07:47.950 ,1,0,0.,1.2,0.,1.2,0.,1.2,,0.0,,0.0
1979-03-10 06:07:49.150 ,1,0,0.,1.2,0.,1.2,0.,1.2,,0.0,,0.0
1979-03-10 06:07:50.350 ,1,0,0.,1.2,0.,1.2,0.,1.2,,0.0,,0.0
1979-03-10 06:07:51.550 ,1,0,0.,1.2,0.,1.2,0.,1.2,,0.0,,0.0
1979-03-10 06:07:52.750 ,1,0,0.,1.2,0.,1.2,0.,1.2,,0.0,,0.0
1979-03-10 06:07:53.950 ,1,0,0.,1.2,0.,1.2,0.,1.2,,0.0,,0.0
1979-03-10 06:07:55.150 ,1,0,0.,1.2,0.,1.2,0.,1.2,,0.0,,0.0
1979-03-10 06:07:56.350 ,0,0,0.,1.2,0.,1.2,0.,1.2,,0.0,,0.0
1979-03-10 06:07:57.550 ,0,0,0.,1.2,0.,1.2,0.,1.2,,0.0,,0.0
1979-03-10 06:07:58.750 ,0,0,0.,1.2,0.,1.2,0.,1.2,,0.0,,0.0
1979-03-10 06:07:59.950 ,0,0,0.,1.2,0.,1.2,0.,1.2,,0.0,,0.0
1979-03-10 06:08:01.150 ,0,0,0.,1.2,0.,1.2,0.,1.2,,0.0,,0.0
1979-03-10 06:08:02.350 ,0,0,0.,1.2,0.,1.2,0.,1.2,,0.0,,0.0
1979-03-10 06:08:03.550 ,0,0,0.,1.2,0.,1.2,0.,1.2,,0.0,,0.0
1979-03-10 06:08:04.750 ,0,0,0.,1.2,0.,1.2,0.,1.2,,0.0,,0.0
1979-03-10 06:08:05.950 ,0,0,0.,1.2,0.,1.2,0.,1.2,,0.0,,0.0
1979-03-10 06:08:07.150 ,0,0,0.,1.2,0.,1.2,0.,1.2,,0.0,,0.0
1979-03-10 06:08:08.350 ,0,0,0.,1.2,0.,1.2,0.,1.2,,0.0,,0.0
1979-03-10 06:08:09.550 ,0,0,0.,1.2,0.,1.2,0.,1.2,,0.0,,0.0